sat.trackr.live / text

‹ back to catalog

STARLINK-3139

NORAD 49425 · 2021-104T

PAYLOAD ACTIVE UNKNOWN

§ Identity

Operator
Country
US
Launch date
2021-11-13
Launch site
AFETR
Launch vehicle
Mass (kg)
RCS (m²)

Purposes: comms

External: N2YO · Heavens-Above · Gunter

§ Orbital elements

Epoch: 2026-09-20T01:14:33.492192Z

Period
94.01 min
Inclination
53.1613°
Eccentricity
0.0001160
Mean motion
15.31691446 rev/d
Perigee alt
470.0 km
Apogee alt
471.6 km
Semi-major
6,848.9 km
B*
-1.3650e-5
RAAN
62.9191°
Arg perigee
83.2818°
Mean anomaly
276.8315°
Rev number
26,816

§ Raw data

STARLINK-31391 49425U 21104T   26263.05177653 -.00000788  00000+0 -13650-4 0  99982 49425  53.1613  62.9191 0001160  83.2818 276.8315 15.31691446268166

JSON: /api/v1/satellites/49425 · /tle

For live sub-satellite position, see the globe view (requires WebGL).

§ Visibility from observer

Set your observer location to see the next 7 days of passes ≥ 10°. The values pass through the URL so the page stays shareable.

No JS? Fill the form by hand. The geolocation button needs JavaScript.